Вернуться в каталог

FENGYUN 1C DEB

АктивенSSO
NORAD 30873·DEBRIS·🇨🇳 China

Запущен May 10, 1999 с Taiyuan Satellite Launch Center

Loading…

Ближайшие Пролёты (ближайшие 24 часа)

TLE

СвежийSource: Space-Track

Эпоха: Sep 14, 2026, 22:51 UTC

1 30873U 99025AXK 26257.95257135  .00000175  00000-0  98186-4 0  9994
2 30873  98.6223 255.7706 0107775 210.8867 148.5941 14.19347826 11115

Отслеживайте FENGYUN 1C DEB в реальном времени с AllMySat

Download on the App Store